Terminal Aerodrome Forecast
Issued by NWS Louisville, KY

Home | Current Version | Previous Version | Text Only | Print | Product List | Glossary On
Versions: 1 2 3 4 5 6 7 8 9 10 11 12 13 14 15 16 17
000
FTUS43 KLMK 290500
TAFSDF
TAF
KSDF 290520Z 2906/3012 09005KT P6SM SCT250
     FM291000 10004KT P6SM SCT030 SCT250
     FM291500 16007KT P6SM BKN050
     FM300100 17004KT P6SM SCT250=

USA.gov is the U.S. government's official web portal to all federal, state and local government web resources and services.